Theta_e
314 314 316 320 322 324 328 328 332 334 328 320 318 323 321 322 325 320 322 322 324 320 319 323 326 325 323 328 330 331 330 332 335 340 345 341 341 341 341 341 339 338 338 338 337 336 335 336 337 337 339 340 340 339 338 338 338 338 337 336 337 337 336 334 332 330 329 326 323 323 318 317 326 331 332 333 331 330 330 330 331 331 332 334 334 332 330 328 326 326 325 323 325 328 326 326 326
314 314 320 324 323 327 336 333 329 329 326 319 317 322 319 326 329 321 325 325 323 320 322 325 325 324 323 327 328 335 337 334 337 340 340 339 342 341 341 341 339 339 338 338 337 336 335 334 335 337 339 340 340 339 338 338 338 337 337 336 336 337 335 334 332 330 328 325 322 322 316 314 324 331 332 332 331 330 330 331 331 332 333 334 334 332 329 327 327 327 326 325 326 326 325 325 325
315 316 323 326 326 327 335 334 326 324 324 319 314 319 323 327 327 322 324 322 322 322 324 324 323 323 323 326 326 337 337 333 338 338 339 340 341 341 342 341 341 339 337 338 336 335 335 334 336 338 339 339 339 338 338 338 338 337 337 336 336 336 334 334 332 330 327 323 322 321 315 313 322 330 332 331 330 329 329 329 330 332 333 334 333 332 330 328 328 326 326 327 327 325 325 325 325
315 318 325 325 331 331 332 332 330 327 320 318 314 318 325 325 324 321 322 322 323 324 322 323 324 322 324 327 326 335 334 332 337 338 339 340 341 342 342 341 342 340 337 337 336 336 335 335 336 337 340 339 339 338 338 338 337 337 336 336 335 335 334 333 332 329 326 324 322 319 315 313 320 328 331 331 330 330 330 330 330 331 332 333 332 331 329 329 329 326 325 327 327 325 325 325 325
318 321 325 324 333 333 330 330 333 329 316 321 320 319 325 322 322 320 321 322 322 323 322 323 324 320 323 326 327 335 334 333 336 336 338 339 341 341 341 342 342 341 338 337 336 336 335 335 335 337 339 339 339 338 338 338 338 337 335 335 335 335 334 333 332 329 326 324 322 319 316 314 318 325 330 330 330 331 330 330 330 330 331 332 331 328 328 328 327 325 325 327 327 325 324 325 326
321 324 326 323 329 327 330 327 323 321 315 326 323 319 325 319 321 321 320 321 321 323 321 323 322 322 326 326 329 333 332 334 337 336 337 339 340 339 341 342 341 342 340 339 337 334 335 335 334 336 339 339 339 338 338 338 338 336 335 335 334 334 333 333 332 330 327 325 323 319 316 314 317 323 328 330 330 330 329 330 330 331 332 331 330 328 328 327 325 325 325 327 326 324 324 325 326
323 325 328 326 329 326 332 328 319 321 316 323 322 320 324 319 321 321 321 320 319 320 320 321 320 325 327 327 332 332 333 335 336 337 337 338 339 339 341 341 342 342 342 342 339 335 334 335 334 335 338 339 339 338 338 338 337 335 334 334 334 334 333 334 333 331 328 326 324 321 317 314 316 321 326 329 329 329 329 329 329 330 331 330 330 328 328 327 326 325 325 326 326 324 324 325 325
322 326 333 331 333 329 331 327 321 325 320 319 321 321 322 320 321 320 321 321 319 319 319 319 320 324 322 330 335 332 335 336 336 337 337 338 338 339 341 342 342 342 342 342 341 338 335 335 334 334 337 339 339 339 338 338 337 335 334 333 333 333 334 334 333 332 329 326 325 323 319 315 314 317 323 328 329 329 328 328 328 328 328 327 327 326 326 326 325 325 325 326 325 324 325 324 325
321 325 333 330 329 329 325 322 320 322 320 321 320 321 322 321 321 320 321 319 319 319 319 320 321 321 321 332 333 331 335 336 337 337 337 337 337 340 342 341 342 342 342 342 342 339 335 336 334 333 336 338 338 339 339 338 337 335 333 333 333 333 334 334 333 332 330 327 326 324 321 317 314 314 320 326 328 328 328 328 328 327 327 326 326 326 325 325 324 324 325 325 324 324 324 323 323
324 324 330 330 328 325 319 318 320 320 319 322 319 320 321 320 320 320 320 318 319 320 319 319 319 319 324 332 329 331 335 335 337 336 337 336 337 340 340 340 341 342 341 342 342 340 336 336 335 333 335 337 338 338 338 338 337 335 331 330 332 333 333 333 333 333 331 328 327 326 322 319 316 315 318 324 327 328 327 327 326 326 326 326 325 325 324 324 324 324 324 324 323 323 322 322 322
327 325 330 333 327 321 319 319 320 320 318 320 319 319 319 319 319 318 318 317 319 322 319 318 318 319 327 331 328 331 333 335 336 335 336 335 338 340 339 340 341 341 341 342 342 340 337 335 335 333 334 337 337 338 338 337 337 335 328 325 330 333 333 333 334 333 331 329 328 328 324 319 317 316 316 320 323 325 325 324 323 322 324 325 325 324 324 324 324 323 323 322 322 322 322 322 322
330 330 331 328 325 320 320 322 320 320 318 318 319 319 320 320 319 318 318 317 320 323 319 319 318 318 327 330 328 330 333 335 334 334 335 334 337 338 339 341 341 341 341 342 342 340 336 335 335 334 334 335 336 337 338 337 337 335 326 321 328 332 333 333 333 333 332 330 330 329 325 320 316 315 314 316 319 320 320 317 316 315 318 322 324 324 324 323 323 323 321 320 321 321 321 321 320
330 332 327 324 331 325 321 323 321 321 319 321 320 318 320 318 319 319 319 318 319 321 319 320 318 320 327 328 328 329 332 333 334 335 334 335 337 337 340 342 341 341 342 342 342 340 336 334 335 334 334 335 335 337 337 337 337 336 327 320 325 331 332 333 333 333 333 332 331 330 327 323 319 317 315 314 314 314 312 309 308 308 308 314 320 323 323 322 323 323 321 320 321 321 321 321 321
327 333 327 326 334 328 325 323 320 322 319 322 319 318 321 318 319 319 318 317 317 320 318 318 317 322 327 328 331 329 330 332 335 336 335 337 337 337 339 341 342 341 342 342 342 341 337 335 335 334 334 335 335 336 337 337 337 336 332 325 324 328 330 332 332 333 333 332 332 330 329 326 322 319 318 316 313 309 306 304 304 304 304 305 311 317 319 321 322 321 319 320 321 321 322 321 321
327 335 329 327 330 325 327 322 322 327 319 319 319 318 320 316 318 318 318 319 318 318 317 316 315 319 322 329 334 328 330 333 333 335 336 336 337 339 339 340 342 342 342 342 342 342 338 336 335 335 334 335 335 336 336 336 337 336 335 332 327 326 328 330 332 333 333 333 332 331 330 328 324 322 320 319 316 311 308 307 308 309 309 307 306 308 313 318 320 319 317 320 321 321 322 322 322
327 337 331 324 326 323 323 321 324 327 319 320 318 318 319 316 318 317 317 318 319 317 317 317 316 317 323 333 332 326 331 333 331 334 334 336 337 338 339 340 341 341 342 342 342 341 339 337 336 337 336 335 335 335 336 336 336 336 336 336 333 329 328 329 331 333 333 333 332 331 330 329 326 323 321 320 319 316 314 314 315 315 314 312 309 307 309 312 315 317 317 319 321 321 322 321 321
330 339 332 322 325 323 321 322 323 322 320 320 317 318 319 316 317 316 314 317 320 318 317 316 316 320 330 337 330 327 333 332 331 333 332 335 336 336 338 339 341 341 341 341 341 341 340 339 337 337 337 337 336 335 336 336 335 336 336 337 336 334 330 329 330 333 333 333 333 332 330 329 326 323 321 321 320 317 317 318 318 318 317 315 313 310 308 309 314 317 317 319 321 320 321 321 321
331 334 327 325 327 321 319 322 322 323 320 318 317 319 320 318 317 315 315 316 318 317 316 318 320 325 331 332 329 331 332 331 333 332 331 332 334 335 335 337 339 340 340 341 340 340 339 339 339 338 338 338 337 336 336 336 336 335 335 336 337 336 334 330 329 332 333 333 332 332 331 329 327 324 323 322 321 318 318 320 319 319 318 316 314 311 308 309 314 316 316 319 319 319 319 319 320
329 329 323 331 330 317 317 319 318 321 320 318 318 318 318 318 317 315 315 316 316 316 316 319 323 326 331 330 329 332 331 331 332 331 331 330 331 332 333 335 338 339 339 340 339 339 338 338 339 338 339 339 338 337 336 337 337 336 335 335 336 337 336 334 330 329 332 333 332 332 331 330 329 326 324 322 321 320 319 320 320 319 318 317 313 311 308 308 313 315 315 317 317 317 318 318 319
328 331 325 331 326 316 318 318 317 319 319 318 317 316 317 317 316 315 315 316 316 316 316 319 322 326 331 331 328 330 330 331 331 330 330 329 330 329 330 332 334 337 338 338 339 338 337 338 339 338 338 339 338 338 338 338 338 338 336 334 335 336 337 336 333 329 330 332 332 332 332 331 329 327 325 323 322 321 320 320 320 319 318 316 314 311 307 307 311 313 313 314 315 316 317 317 318
323 329 329 325 319 320 319 317 319 319 318 318 318 317 317 316 316 315 316 316 315 317 316 317 320 323 328 330 327 328 328 329 330 329 329 329 330 328 329 329 331 335 336 337 337 337 337 337 338 338 338 338 338 339 339 338 338 339 337 335 335 335 336 337 335 331 330 331 332 332 332 331 329 327 325 323 323 322 320 320 320 320 319 317 315 311 307 308 311 312 313 313 314 315 316 317 317
319 320 323 320 318 322 318 317 320 319 319 319 318 317 316 316 316 316 316 317 318 318 316 317 318 318 324 329 327 326 326 327 329 328 329 329 329 330 329 329 331 334 335 335 336 336 337 336 337 338 338 339 339 338 338 338 338 339 338 336 336 336 336 336 337 334 331 331 332 332 331 331 330 328 326 324 324 323 322 321 320 320 319 317 315 312 308 310 312 313 314 314 313 313 314 315 316
320 316 317 319 320 321 317 318 319 319 321 319 318 316 316 317 316 318 317 318 320 318 319 322 319 314 319 326 326 326 326 326 327 328 329 329 329 330 330 330 331 332 334 335 335 335 336 336 336 336 337 338 338 338 337 338 338 338 338 337 337 337 337 336 336 335 333 332 332 333 332 330 330 329 326 324 323 323 323 322 320 320 320 318 316 313 311 312 314 313 314 314 313 312 312 314 316
320 317 317 318 319 319 316 317 317 319 320 318 317 315 317 318 316 317 317 319 319 316 317 319 316 312 316 324 325 324 325 325 326 328 329 329 329 329 330 330 330 330 332 333 333 333 334 336 335 334 335 336 336 336 336 337 338 338 338 338 338 337 337 336 336 335 335 333 332 332 333 331 331 330 327 325 324 323 323 322 321 320 320 319 317 316 315 315 314 314 314 313 312 311 312 313 315
318 317 317 317 317 317 316 317 317 318 318 316 316 317 318 319 317 317 318 321 320 315 315 317 316 314 317 323 324 322 324 324 325 327 327 329 329 329 330 331 331 330 330 331 332 333 332 333 335 334 334 335 335 335 335 336 338 338 338 338 338 337 337 336 335 335 335 335 333 332 333 333 331 331 329 327 325 323 323 322 321 320 320 319 318 317 318 318 316 315 313 312 311 311 311 312 314
316 318 318 317 316 316 316 316 317 317 317 316 317 319 319 317 316 317 320 321 320 317 318 320 320 320 319 321 321 319 322 324 324 326 327 327 329 329 330 330 332 332 330 329 330 332 332 332 333 333 334 336 335 335 334 335 337 338 338 338 337 337 337 336 335 336 336 335 334 332 333 333 332 332 331 329 326 324 323 322 321 321 320 319 319 319 319 320 318 317 314 312 311 311 311 311 312
317 318 319 318 317 316 316 316 316 317 317 316 317 319 319 316 316 318 320 320 318 318 320 319 320 323 320 319 319 316 318 321 323 324 325 326 328 329 330 330 331 332 332 331 330 331 331 332 333 332 334 336 335 335 334 334 337 338 338 337 337 337 337 337 336 336 336 336 335 334 333 333 332 331 331 329 327 325 324 322 321 322 321 319 320 320 320 320 320 319 316 313 311 311 310 309 311
317 319 318 318 318 317 317 317 316 318 317 316 317 319 318 316 317 319 318 320 317 317 321 319 319 321 317 318 319 316 316 318 320 322 323 324 326 328 330 330 329 331 332 332 331 331 331 332 331 331 332 334 334 334 333 333 336 336 337 336 336 337 336 336 337 336 336 336 336 335 334 333 333 331 330 330 328 325 325 323 321 322 322 320 320 320 320 319 319 319 317 313 311 310 309 307 308
319 320 319 317 316 318 318 318 318 317 318 318 317 316 318 318 319 319 318 321 320 317 320 320 320 321 318 318 317 316 315 315 318 320 322 323 323 325 328 329 329 329 331 333 332 331 332 332 331 330 331 332 333 333 332 333 335 335 335 335 335 335 336 336 337 336 336 336 336 336 336 334 333 332 330 330 329 327 326 325 322 322 323 321 321 320 319 319 319 319 316 313 311 309 306 304 304
318 318 321 319 316 320 320 317 318 317 317 319 316 314 322 325 319 318 318 321 320 319 321 320 320 321 321 320 318 317 314 312 315 318 320 322 321 322 323 326 330 330 330 332 333 332 332 332 331 330 329 330 331 332 331 332 334 334 333 333 333 333 334 335 335 336 335 336 336 336 336 335 334 332 331 330 329 328 327 326 323 322 322 322 321 320 320 319 319 318 315 312 310 308 305 301 301
319 316 324 325 318 322 322 316 318 317 316 318 316 315 321 323 318 318 319 319 320 320 321 321 320 320 321 322 321 320 316 311 313 318 320 320 321 321 320 322 328 331 330 331 332 332 332 331 330 329 328 328 330 331 331 331 332 333 333 332 331 331 331 332 333 334 335 335 335 336 336 336 335 333 333 331 330 329 328 326 324 323 322 321 321 320 320 319 319 318 316 312 308 305 303 300 299
320 317 324 326 319 324 324 317 319 318 316 317 316 317 320 319 318 319 317 317 319 320 321 321 321 321 320 321 321 321 318 312 312 315 318 320 321 321 321 321 325 329 331 331 331 331 331 330 330 329 328 327 328 329 330 331 331 331 332 331 331 331 330 330 330 331 332 332 332 334 336 335 335 334 333 332 331 330 328 327 325 324 323 321 320 320 320 319 319 317 315 313 308 304 301 299 297
324 320 323 324 318 322 322 318 319 319 319 317 315 317 320 319 318 319 318 319 320 321 322 322 321 321 321 320 319 320 319 316 314 314 315 319 320 321 321 321 322 325 328 330 331 331 331 330 330 329 328 328 327 328 329 330 330 330 330 330 330 330 330 330 329 329 330 329 329 330 332 333 334 335 334 332 332 331 330 328 326 325 323 321 320 320 319 319 318 316 312 311 309 304 300 298 295
324 319 320 325 320 319 322 320 319 319 319 318 317 318 319 320 319 318 318 320 320 321 323 324 323 322 322 322 321 320 319 321 319 314 315 317 319 320 321 321 321 322 325 328 330 330 330 330 329 329 328 328 327 328 328 329 329 329 329 329 329 329 329 330 329 330 329 328 329 329 331 332 332 333 333 333 332 332 331 329 328 327 325 322 321 320 319 318 316 315 311 308 307 304 301 298 295
326 320 319 323 320 318 322 321 318 318 318 318 319 318 318 320 318 316 316 318 319 320 321 322 323 322 322 323 323 321 319 320 319 314 315 316 317 319 321 322 323 322 324 326 328 329 329 329 329 328 328 327 326 327 327 328 328 327 328 328 328 328 328 328 329 330 329 327 328 332 334 333 333 332 333 333 332 332 331 330 329 328 326 323 321 320 319 317 314 312 308 305 304 303 301 298 295
327 327 325 324 319 317 319 318 316 316 317 319 319 318 318 317 317 316 315 316 317 318 319 319 320 320 320 321 321 321 320 320 316 313 315 317 317 318 319 321 323 323 323 324 326 327 326 327 328 328 327 326 326 326 326 326 326 325 325 325 325 326 326 327 329 329 329 326 327 331 334 334 334 333 333 333 332 331 331 330 329 329 327 325 322 320 318 317 315 312 308 303 301 299 298 296 294
323 327 325 322 320 317 317 319 317 317 316 320 322 319 318 316 315 315 314 315 316 317 319 319 319 319 318 319 319 319 319 318 314 313 315 316 317 317 317 319 321 322 322 322 324 324 324 324 326 327 326 326 325 324 324 324 323 323 322 322 322 323 324 327 328 329 328 327 327 331 333 333 334 334 333 332 331 331 330 330 330 328 327 325 323 322 321 319 316 313 309 304 301 298 296 294 294
324 326 322 322 324 318 316 318 318 317 315 319 323 318 316 315 313 314 314 314 315 316 318 318 319 318 317 319 319 318 317 316 315 315 314 314 316 316 317 318 319 320 320 321 322 321 322 322 323 324 324 324 323 323 322 322 321 321 320 320 320 321 324 326 327 328 328 327 328 331 331 332 332 332 332 332 331 331 330 330 329 327 327 324 322 319 319 317 313 310 307 302 300 299 297 294 294
328 326 322 324 327 320 317 319 318 317 316 320 324 318 316 315 314 314 313 314 314 314 316 317 317 317 317 317 318 318 318 318 319 320 317 314 315 316 316 317 318 319 320 320 321 320 321 321 321 321 321 321 321 320 320 320 319 319 318 318 318 320 323 325 326 326 326 326 327 329 330 330 331 331 331 331 330 329 329 329 328 327 326 324 320 317 316 314 311 308 307 304 300 298 296 295 296
330 327 323 325 327 320 318 319 318 317 316 318 322 321 318 316 317 319 316 314 314 314 315 317 318 318 318 318 317 318 318 319 321 326 324 315 313 315 315 316 317 318 319 320 320 320 320 320 320 320 319 319 319 319 318 318 319 318 318 318 319 321 322 323 324 324 324 324 325 326 326 327 329 330 330 329 328 327 327 327 328 327 325 323 320 319 316 313 310 307 305 304 302 298 294 294 296
326 330 330 328 324 320 320 321 320 321 321 321 321 320 322 324 324 325 322 317 315 316 316 317 319 320 319 320 320 318 319 322 324 329 332 320 313 315 315 316 316 317 318 319 320 320 320 320 319 319 319 318 318 318 318 318 318 318 319 319 320 321 321 321 321 321 322 322 322 321 321 322 326 328 328 328 327 327 326 326 327 326 324 322 321 321 319 314 311 307 304 303 303 301 296 294 295
319 325 328 327 325 324 325 326 323 321 322 323 319 317 326 332 324 319 317 315 314 317 318 320 322 321 319 321 321 319 322 328 328 329 330 320 313 314 315 315 315 316 317 318 318 319 319 319 319 319 318 318 318 318 318 318 318 318 319 318 318 318 318 318 319 319 319 319 319 319 317 319 322 325 326 326 326 326 326 326 326 325 324 323 321 320 318 314 310 307 306 305 304 304 301 296 295
316 319 324 329 333 330 329 330 322 317 318 319 318 317 322 323 315 313 315 313 313 313 314 318 321 321 321 321 320 322 327 331 331 330 327 320 314 313 314 314 315 315 316 316 317 318 318 318 319 319 318 318 318 317 317 318 318 318 318 317 317 317 316 316 316 316 316 316 316 316 317 319 321 323 323 324 325 325 325 325 324 325 324 323 321 319 316 314 311 309 309 308 305 304 303 299 296
320 323 326 331 332 327 329 332 323 320 322 324 326 322 321 321 315 316 317 313 315 315 316 317 315 317 319 319 321 326 331 335 336 336 334 325 315 312 314 314 315 315 315 316 316 316 317 317 317 318 318 318 317 317 317 317 317 317 317 316 316 315 315 315 315 314 314 314 314 315 317 319 321 322 322 322 323 324 324 323 323 323 323 322 320 317 315 314 312 311 308 306 305 304 306 305 299
324 325 327 332 332 329 336 335 327 326 321 323 330 322 318 326 328 325 320 315 317 319 321 321 316 315 314 317 325 331 336 341 340 343 341 325 314 313 315 315 315 316 315 315 315 315 315 316 316 317 317 317 317 317 317 317 317 316 316 315 314 314 314 314 314 313 313 314 314 316 317 319 320 321 322 321 321 322 322 322 322 322 322 321 320 317 316 314 312 310 307 304 303 304 305 305 301
324 325 328 334 334 333 336 333 327 326 319 320 330 322 314 320 324 322 317 316 321 321 321 320 318 320 318 322 333 335 336 338 337 341 334 317 314 316 316 315 316 315 315 315 314 314 315 315 316 316 316 317 316 316 317 316 316 316 315 314 314 314 313 313 313 313 313 314 314 316 317 318 319 320 320 320 320 320 320 321 320 321 321 320 320 318 315 314 312 310 309 307 305 304 303 301 301
324 329 332 333 336 337 338 335 327 319 318 323 329 324 314 316 323 323 317 320 324 320 319 319 325 333 329 328 334 336 337 335 332 333 322 311 313 317 315 315 315 315 315 314 313 313 314 315 315 316 316 316 316 316 316 316 315 315 314 314 314 314 313 313 313 312 312 313 313 315 316 316 317 318 319 319 319 319 319 320 319 319 319 318 319 317 314 314 313 311 309 307 306 304 303 302 302
329 334 332 325 331 338 335 333 325 316 319 325 327 325 316 315 323 323 320 324 321 318 319 321 327 335 333 332 336 339 341 338 332 331 323 315 315 314 313 314 314 314 314 313 313 313 313 315 315 315 315 315 316 315 315 315 315 314 314 314 313 313 313 313 313 312 312 312 312 313 314 315 316 316 317 317 317 317 317 317 317 316 316 316 316 315 314 314 314 312 309 306 305 304 304 303 302
329 328 324 316 320 328 327 328 326 321 321 321 322 325 318 315 318 318 321 324 319 316 317 323 331 336 337 340 343 341 340 338 334 330 327 325 319 311 310 313 312 313 313 312 313 313 313 315 314 315 315 315 315 315 315 314 314 314 313 313 313 312 312 312 312 312 311 311 311 312 312 313 315 315 315 315 316 316 315 315 315 314 314 314 314 314 315 315 315 314 311 307 306 304 303 302 302
325 321 321 319 320 321 322 324 324 324 325 321 319 320 321 321 320 320 321 318 319 320 318 325 335 338 343 347 348 346 341 337 334 330 330 331 320 308 307 311 312 312 313 313 313 313 314 314 314 315 314 314 315 314 314 314 313 313 313 313 313 312 312 311 311 311 311 311 311 311 313 314 315 316 316 316 316 316 315 315 314 314 314 314 313 314 315 315 314 314 311 309 308 305 304 302 303
322 323 321 320 325 326 325 325 322 325 327 322 317 319 325 326 322 322 320 316 320 323 319 323 325 328 336 340 342 346 343 336 331 330 336 331 314 306 308 310 311 312 312 313 313 314 314 314 314 314 314 314 314 314 313 313 313 313 313 312 312 312 311 311 311 311 311 311 311 312 313 314 316 317 318 318 317 317 316 316 315 314 314 313 313 314 314 314 313 311 311 310 309 306 304 303 303
320 324 320 319 326 323 323 326 326 326 325 321 320 324 328 325 320 321 318 315 317 316 316 317 316 321 328 331 335 337 336 337 335 333 340 330 310 306 309 309 310 311 311 312 313 313 314 314 314 314 314 314 313 313 313 313 313 312 312 312 311 311 311 310 310 311 311 311 311 312 312 314 315 317 318 319 318 318 317 316 315 313 312 312 312 313 313 313 312 310 310 310 308 306 303 302 303
318 321 320 324 327 319 318 322 320 319 318 318 320 322 321 317 315 317 314 313 315 314 316 317 317 321 322 327 336 332 327 333 340 339 340 330 312 308 310 309 310 311 310 312 312 313 313 313 314 313 313 313 313 313 313 312 312 311 311 311 310 310 310 309 310 310 311 311 311 312 312 313 314 315 317 319 318 318 317 316 315 313 311 310 311 312 312 313 312 311 311 310 309 306 304 303 304
321 323 321 322 323 322 325 325 320 318 317 319 319 316 314 313 313 315 315 314 314 317 320 320 321 322 319 325 333 331 328 333 339 339 338 327 311 308 311 311 311 311 310 311 311 312 313 313 313 313 313 313 313 312 312 311 311 311 310 310 309 310 309 309 310 310 311 311 311 311 312 312 314 315 316 317 317 317 316 315 313 312 311 310 310 310 311 312 312 311 311 310 309 307 305 304 304
324 326 322 323 326 326 326 322 320 319 317 321 321 316 313 313 312 313 315 316 315 317 321 320 321 322 322 325 327 331 337 340 339 338 343 333 312 309 313 312 312 312 311 311 311 311 313 312 313 313 312 313 312 312 312 311 311 310 310 310 309 309 309 308 309 310 310 311 311 311 311 312 313 314 315 315 315 315 314 312 311 310 309 309 309 310 310 311 310 310 309 308 308 307 305 304 303
323 322 318 323 327 327 326 321 321 321 318 318 318 315 314 314 314 314 316 318 317 316 319 320 322 323 322 325 330 338 344 346 345 344 352 341 315 311 315 314 313 313 311 311 311 311 312 312 312 312 312 312 312 312 311 311 310 310 309 309 308 308 308 308 309 309 310 310 311 311 311 311 312 313 312 312 313 312 311 310 309 308 308 307 307 308 308 308 308 308 308 307 307 306 305 304 302
322 321 320 321 320 322 324 322 321 322 321 319 316 314 314 313 314 315 317 318 318 318 320 322 324 323 323 326 337 350 351 351 353 350 355 344 317 311 316 313 312 313 312 311 311 311 311 311 312 312 312 312 311 311 311 311 310 310 309 309 308 307 307 307 308 309 309 310 310 310 310 311 311 312 311 311 311 310 310 309 308 308 307 306 306 305 305 306 306 307 307 307 307 305 304 303 301
320 319 320 320 318 320 320 319 320 320 322 326 320 314 313 313 313 316 318 318 320 322 322 321 322 322 322 326 337 350 351 350 348 347 353 341 316 311 314 311 311 312 311 311 311 311 311 311 311 312 311 312 311 311 311 310 310 309 309 308 308 307 306 307 307 308 308 309 309 310 310 310 311 311 311 311 311 310 309 309 307 307 306 305 305 305 305 305 305 305 306 305 305 304 302 301 300
Wind_Speed
7 6 4 3 5 6 5 2 2 3 3 3 1 2 1 2 3 4 4 2 2 1 1 4 3 3 4 6 8 7 3 0 2 3 2 5 16 17 15 17 19 20 21 19 17 16 16 17 16 15 13 12 13 12 13 13 13 13 13 13 13 13 13 12 12 12 12 12 14 15 16 17 18 19 18 17 18 18 18 18 17 16 17 17 18 18 17 18 19 19 20 24 27 27 29 29 29
7 5 3 3 3 3 2 2 3 2 5 3 2 2 2 2 5 4 5 3 3 3 3 5 5 5 7 9 8 7 4 4 2 3 2 13 21 17 17 19 19 19 20 19 17 16 16 16 16 14 14 13 12 12 13 13 13 13 13 13 13 13 12 12 12 11 11 12 14 15 16 16 18 19 18 17 17 17 18 17 15 16 16 17 17 18 17 18 20 21 22 24 27 28 29 28 28
6 4 3 3 2 1 0 2 2 1 5 2 3 2 2 5 4 4 5 5 5 5 5 4 4 3 5 6 3 5 1 2 5 4 5 16 18 18 20 17 16 17 19 19 18 17 16 16 15 14 14 13 13 13 13 13 14 13 12 12 12 12 11 11 11 11 11 12 14 15 15 16 18 19 18 17 17 17 18 17 16 17 17 16 17 18 18 19 20 20 21 23 26 28 27 27 27
5 3 3 3 2 2 3 2 2 4 3 3 2 3 3 6 6 4 4 5 5 5 4 3 3 1 4 7 3 5 3 1 6 6 6 15 18 22 22 17 15 15 17 18 17 17 16 16 15 14 14 13 13 13 14 14 14 13 12 12 12 11 11 11 11 11 11 12 13 14 15 16 17 18 18 17 17 17 17 17 16 16 16 16 16 17 17 19 20 19 20 22 24 26 26 27 26
3 1 4 2 2 1 2 1 1 5 2 4 2 1 5 7 7 5 3 2 2 4 3 3 2 2 3 4 2 4 4 3 5 7 9 17 23 23 22 19 16 14 16 16 16 16 15 15 15 14 13 13 13 13 14 14 13 12 12 11 11 11 11 11 11 11 11 12 13 14 14 15 16 17 18 18 17 17 16 16 15 15 17 17 16 16 16 17 19 19 21 21 22 25 26 26 27
3 3 3 0 1 1 2 2 3 4 1 4 4 3 6 7 7 7 4 3 3 4 3 3 3 2 3 2 3 3 2 6 7 8 13 21 25 22 21 21 18 17 16 14 15 14 14 14 14 14 13 13 13 13 13 13 12 12 11 11 11 11 11 11 11 11 11 12 13 13 14 15 16 17 18 18 17 17 16 16 17 17 17 18 17 17 16 17 18 19 21 21 22 25 25 26 27
5 6 1 1 2 0 4 3 3 2 1 2 6 6 7 6 7 8 5 3 5 4 3 2 4 6 3 1 3 4 2 10 12 12 18 25 26 23 21 20 19 20 16 14 15 15 14 13 13 15 14 13 13 13 13 12 12 11 11 11 11 11 11 10 11 11 11 12 12 13 13 14 15 16 17 17 17 16 16 15 16 17 17 17 17 17 17 18 18 19 21 20 22 25 24 24 25
3 2 0 3 2 2 4 3 3 3 1 2 5 7 8 8 7 7 5 3 1 0 1 0 3 6 1 3 3 3 7 13 16 19 23 25 27 24 21 19 19 19 17 15 15 16 15 14 14 15 15 14 13 13 13 12 12 11 11 11 11 11 11 10 10 10 10 11 11 12 12 13 14 16 17 17 17 16 16 15 15 16 17 17 17 18 18 19 18 20 21 20 23 25 24 24 24
2 2 1 3 1 3 3 2 1 2 1 3 5 7 8 9 7 7 5 3 4 3 2 3 3 5 2 5 4 2 9 15 22 25 25 24 25 25 21 19 19 18 18 16 15 16 16 15 15 16 16 14 13 14 13 12 12 11 11 11 11 11 10 10 10 9 10 11 11 11 11 12 13 15 16 17 17 16 16 16 15 16 17 17 18 18 18 18 18 20 20 21 24 24 23 23 22
1 1 1 2 1 3 2 0 0 2 2 3 5 7 8 8 7 7 6 5 5 4 3 4 4 5 4 5 3 2 10 19 24 25 24 24 24 26 20 16 18 18 18 17 15 16 17 16 15 16 17 15 14 13 13 12 12 11 10 11 12 11 10 10 10 9 10 10 10 10 10 11 13 14 15 16 17 16 16 15 15 16 17 18 18 18 18 18 18 19 20 22 24 22 22 21 21
2 2 2 3 3 2 1 2 2 3 3 2 2 4 7 7 7 5 7 5 4 5 3 1 3 4 5 4 1 4 16 20 22 25 24 24 25 25 16 12 19 18 17 17 14 16 17 17 16 16 17 16 14 13 13 12 11 10 10 12 13 12 11 11 10 10 10 10 10 10 10 11 12 13 15 16 15 15 14 14 14 16 17 18 18 18 18 18 18 19 21 22 22 21 21 21 22
1 3 4 3 1 1 2 5 5 4 3 4 2 2 4 6 5 5 7 6 4 5 4 2 3 4 6 2 1 8 18 18 19 22 22 25 25 21 12 13 19 18 17 17 14 16 18 18 17 16 16 16 15 14 13 12 11 10 10 12 14 13 12 11 11 10 10 10 10 10 10 10 11 12 13 14 14 13 13 13 14 15 17 18 18 18 18 18 18 19 21 21 21 21 21 21 21
1 1 5 1 3 3 3 5 4 4 2 3 4 3 4 4 3 6 8 6 6 6 4 5 3 5 4 0 2 8 12 16 19 20 21 24 22 17 12 13 18 18 17 16 15 16 18 19 18 17 16 16 16 15 14 13 12 11 11 12 14 14 13 12 11 10 10 10 10 10 10 10 11 12 12 13 13 13 13 13 14 14 15 17 18 18 18 19 19 19 21 22 22 22 21 21 21
1 1 5 1 2 2 4 4 2 4 1 5 3 3 4 3 3 4 7 6 3 5 3 5 3 7 3 1 2 4 9 18 21 21 21 21 18 16 15 14 17 17 17 16 16 16 19 19 18 18 17 16 16 16 15 13 13 12 12 13 14 14 13 13 12 11 11 10 10 10 10 9 10 11 11 12 12 13 13 14 14 14 13 14 16 17 18 18 19 20 23 23 23 22 22 22 21
2 0 4 1 3 2 1 2 4 5 2 3 3 4 4 1 2 5 6 6 2 3 1 1 3 3 3 4 4 6 14 23 23 22 22 19 18 17 17 16 17 18 17 17 16 15 19 20 19 19 18 17 17 17 16 14 14 13 13 13 14 14 14 14 13 13 12 11 11 11 10 10 10 10 11 11 12 12 14 14 14 14 13 13 14 15 17 18 20 23 24 23 22 22 21 21 21
2 2 4 2 2 2 2 1 4 4 2 4 3 4 5 2 2 5 1 5 2 2 1 1 1 2 5 5 6 14 23 25 22 22 22 20 18 18 18 17 18 18 17 17 16 16 18 20 20 19 19 18 17 17 16 15 15 14 14 13 14 14 14 14 15 14 13 12 12 11 10 10 10 10 11 11 11 12 13 14 14 14 14 13 13 14 15 18 22 24 23 22 22 21 20 20 19
3 4 4 1 1 1 2 1 3 3 3 4 4 4 6 2 2 2 1 5 4 0 3 2 4 4 4 3 12 26 28 25 23 21 21 20 18 18 17 17 19 19 17 17 17 18 18 20 20 20 19 19 18 18 17 16 16 15 15 14 14 14 14 15 16 15 14 13 13 12 11 11 11 11 11 11 11 12 13 13 14 14 14 14 14 14 15 18 22 22 22 22 20 19 19 18 17
4 3 3 1 2 0 2 4 4 4 4 6 6 5 7 4 1 1 2 5 2 2 3 3 7 7 7 11 22 29 28 25 24 22 21 19 18 18 17 18 20 20 19 17 18 20 20 21 21 21 20 20 20 19 18 17 16 16 16 15 15 15 15 15 16 17 15 14 14 13 12 12 11 12 11 12 12 12 12 13 13 14 15 15 16 16 17 19 21 21 22 21 19 18 17 16 16
3 2 3 3 4 0 3 1 1 2 6 7 6 6 5 5 5 2 1 2 1 3 1 4 7 6 8 13 21 25 27 26 24 24 22 20 21 20 19 20 21 22 22 20 20 21 21 23 23 23 21 20 20 20 19 18 17 17 17 17 16 16 16 16 16 17 17 15 15 14 13 13 12 12 12 12 12 12 12 12 13 14 15 16 17 17 18 19 20 21 21 20 18 17 16 16 15
2 3 3 5 5 2 4 3 2 1 7 9 5 5 3 3 5 3 3 4 3 5 4 4 3 4 6 9 16 22 23 24 23 23 21 20 21 22 22 23 24 26 27 24 22 21 20 23 25 25 23 22 21 21 20 19 19 18 19 19 18 17 17 18 17 17 18 17 16 16 15 15 14 14 14 14 13 13 13 13 13 14 15 16 17 19 19 20 20 21 20 18 16 16 17 16 15
1 3 4 5 3 2 4 2 3 3 6 9 5 5 4 3 4 3 5 4 3 6 7 8 9 10 11 8 13 19 19 20 21 21 20 20 20 21 24 26 27 28 28 26 24 23 21 21 24 25 25 24 24 24 23 22 20 19 19 20 20 19 19 19 19 18 19 18 17 17 17 17 16 16 16 16 15 15 15 15 15 15 16 17 18 19 21 21 21 20 18 16 15 15 16 16 15
1 1 4 3 2 3 4 2 4 4 5 6 5 6 3 3 2 4 7 5 5 6 7 10 10 12 15 13 14 15 15 17 18 19 20 20 21 22 23 24 24 23 25 27 27 26 24 22 22 23 25 25 25 25 24 23 22 20 21 21 21 21 21 21 20 20 20 20 20 19 19 19 18 17 18 18 17 16 16 16 16 16 16 17 18 20 22 21 20 19 16 15 14 14 16 16 16
2 1 1 2 2 4 2 2 4 4 7 5 4 2 2 4 1 3 7 7 7 6 6 8 8 13 19 17 15 13 12 14 18 22 23 24 24 24 25 25 25 25 26 28 29 29 27 26 24 24 24 25 24 24 24 24 23 22 22 22 23 23 23 23 23 22 22 22 22 22 21 21 20 20 20 19 19 18 18 17 17 18 18 19 19 20 22 20 18 17 16 15 14 14 16 17 18
5 2 1 2 4 4 1 0 2 5 7 2 2 3 2 5 3 1 4 8 7 6 5 6 8 15 18 14 13 13 14 17 21 26 27 27 29 29 27 26 26 27 28 27 26 28 30 30 28 27 26 26 25 24 24 24 24 24 23 23 24 25 25 25 24 24 24 24 25 24 23 24 23 22 22 21 21 20 19 19 19 20 19 20 21 20 20 19 18 17 16 15 15 16 16 18 19
3 3 2 2 2 1 1 2 3 4 4 2 4 3 3 6 4 1 6 9 7 7 4 7 10 13 14 12 12 11 12 16 20 22 24 26 26 25 25 25 25 26 28 29 27 27 29 30 29 29 29 29 28 27 26 25 25 25 25 25 25 26 26 26 24 24 26 26 26 26 26 26 26 24 24 24 23 22 22 21 21 21 21 22 23 22 20 19 18 17 16 16 16 17 18 19 19
2 4 3 3 1 1 2 2 2 1 1 3 3 2 4 4 2 3 8 10 8 6 6 7 10 10 10 11 12 12 11 14 19 21 24 26 23 22 24 25 25 28 29 29 29 30 29 30 30 29 31 30 29 29 28 27 26 26 26 26 26 25 26 26 24 24 26 27 28 28 28 27 27 27 27 26 26 25 24 23 23 22 22 23 24 22 20 18 18 17 16 17 17 18 19 19 19
2 5 4 5 4 2 2 2 1 0 1 3 3 2 5 2 1 4 8 8 6 7 6 7 9 9 10 9 10 13 13 17 22 22 21 21 21 23 26 27 27 28 29 29 30 31 30 31 31 29 31 32 30 29 29 29 28 27 27 26 26 25 25 26 25 24 24 27 28 30 31 29 27 29 29 28 28 27 26 26 25 23 23 25 24 22 20 19 18 17 17 18 19 20 20 19 19
4 7 5 2 3 1 1 2 2 1 2 1 4 2 5 2 0 7 8 4 5 9 8 7 8 8 9 9 9 11 13 19 24 21 19 21 26 28 29 31 32 29 30 32 31 31 32 33 32 31 31 32 32 31 30 31 30 27 27 27 26 25 25 26 26 25 25 26 28 30 32 30 29 31 31 30 30 29 28 27 28 26 25 27 25 22 21 21 19 18 18 20 20 21 20 19 19
5 7 5 2 3 2 3 2 2 2 1 2 3 3 6 2 6 11 7 2 5 8 8 7 8 7 7 9 8 8 12 18 19 20 24 28 31 32 32 35 35 33 32 32 31 32 34 33 32 32 32 33 34 34 32 32 31 27 27 28 27 26 26 26 27 26 26 27 28 29 31 31 30 32 33 32 31 31 29 29 30 29 27 28 27 24 24 23 22 21 21 22 22 22 21 21 20
3 3 5 1 5 4 7 2 2 4 0 3 2 1 7 6 10 11 6 5 6 7 8 7 7 6 6 7 7 8 11 14 17 23 29 30 31 32 34 35 35 35 33 31 32 34 34 33 32 32 34 35 35 34 32 33 33 29 27 27 27 27 26 27 27 27 26 27 28 28 29 30 31 32 33 33 33 32 31 31 32 32 30 31 30 28 27 26 25 25 25 25 24 24 24 22 22
2 1 3 3 2 4 6 1 4 4 1 3 6 2 7 8 11 10 6 7 9 7 7 6 6 6 6 6 7 8 10 15 21 27 30 30 31 31 33 34 34 35 34 33 34 35 34 33 32 33 34 35 36 35 33 33 34 32 29 28 27 27 27 27 27 28 28 27 28 28 29 30 30 30 32 33 34 34 33 34 34 33 32 33 33 31 30 29 28 28 28 27 26 26 25 24 23
3 2 3 3 3 4 6 1 6 5 2 2 6 2 7 8 10 8 4 4 8 7 7 6 6 6 7 6 7 7 9 15 21 25 29 31 31 31 33 33 34 36 36 36 35 34 34 34 33 33 33 35 36 36 35 33 33 33 32 30 28 28 28 28 27 28 29 29 29 29 29 30 29 30 31 33 34 34 35 35 35 34 34 35 34 33 32 31 31 30 30 29 29 28 27 26 24
3 3 2 3 2 2 4 3 2 5 2 1 2 2 4 5 6 7 5 3 6 5 7 7 7 7 8 7 7 8 7 10 14 20 27 30 31 33 33 33 34 36 37 37 36 35 35 35 35 35 35 35 36 36 36 35 34 33 33 31 28 27 28 29 29 28 28 30 30 29 29 30 30 30 32 32 33 35 36 35 35 35 35 36 36 35 34 32 33 33 31 30 30 30 29 27 26
4 1 2 4 3 3 2 3 3 3 4 1 2 3 6 7 8 8 6 2 5 6 8 8 8 8 8 7 7 8 8 8 11 18 27 30 32 33 34 34 35 35 37 38 37 36 36 36 36 36 36 35 35 36 36 37 36 34 33 32 30 28 28 28 29 30 29 29 29 29 31 32 32 31 32 33 35 36 35 34 34 35 36 37 37 36 33 32 33 34 34 32 31 32 32 29 27
3 3 2 3 2 3 2 3 2 2 3 2 3 4 8 11 12 10 9 5 6 8 9 8 8 8 8 8 7 8 9 10 13 20 28 31 32 32 33 34 34 35 36 37 38 37 36 36 37 37 36 36 36 36 36 36 35 34 34 34 32 31 30 29 29 31 31 30 31 30 30 32 33 33 34 35 36 36 34 33 33 35 37 37 37 36 34 34 34 34 33 32 31 31 31 31 30
7 5 5 3 2 2 3 3 2 1 2 4 6 7 9 10 11 11 10 8 8 9 9 8 8 8 8 8 8 9 9 11 16 21 25 29 32 33 33 34 34 35 36 36 37 37 37 37 37 37 37 37 37 36 35 35 34 33 33 33 34 34 34 32 31 31 31 31 33 32 30 31 33 35 36 36 36 35 35 34 33 34 36 38 38 37 36 36 36 36 34 33 31 29 29 31 31
7 5 4 3 3 1 3 2 4 1 2 5 7 7 10 10 11 12 10 9 7 8 9 9 9 9 9 9 10 11 10 11 14 18 21 26 30 32 33 33 32 32 33 34 36 37 39 39 39 39 39 38 38 37 37 37 36 35 34 35 36 35 34 33 33 32 31 31 32 32 30 31 33 37 39 39 38 37 36 35 34 34 35 38 40 40 40 38 38 38 36 34 33 33 32 31 32
6 5 4 3 1 1 2 1 5 3 2 5 4 5 12 11 10 11 9 9 10 9 10 11 12 11 9 10 12 12 10 9 8 11 16 22 26 28 30 30 31 31 32 34 36 37 38 39 40 40 40 40 40 40 40 39 39 39 38 39 38 36 35 35 34 34 33 32 33 32 31 30 31 34 37 38 37 35 36 35 33 34 36 38 39 38 39 39 39 39 38 36 33 34 35 34 35
5 4 5 2 2 2 2 3 4 2 2 4 5 6 12 12 10 11 10 11 12 10 10 10 11 10 9 10 12 12 10 8 6 8 12 19 23 25 26 28 31 32 32 33 34 35 35 35 38 38 38 40 40 40 40 40 39 38 36 36 36 35 33 34 34 33 33 33 35 34 32 31 31 32 33 33 32 31 33 34 33 34 37 38 37 35 36 38 39 39 41 40 36 32 31 35 37
4 4 5 1 3 1 2 4 4 2 1 3 4 5 11 12 7 9 11 11 11 9 9 9 8 9 11 11 11 11 11 10 7 8 9 12 16 20 23 27 30 30 30 31 32 33 34 35 36 36 37 38 38 38 38 38 35 34 32 30 31 31 30 31 30 30 31 32 34 36 35 33 32 34 35 33 32 30 30 32 33 35 37 39 38 36 36 39 40 41 41 40 40 35 30 35 35
1 3 5 3 2 2 2 2 3 3 3 3 4 5 8 7 4 6 7 4 6 7 6 8 9 10 11 10 11 11 9 8 8 9 8 8 12 18 23 26 27 28 29 32 33 34 34 35 36 36 36 36 36 37 36 35 33 31 30 27 25 27 26 27 28 30 31 31 33 35 36 35 33 33 36 36 34 31 31 34 36 36 37 38 38 38 39 41 43 44 42 39 40 40 35 36 33
4 1 5 6 5 5 2 3 5 5 5 4 4 4 7 6 6 8 7 6 8 6 4 8 10 9 9 9 12 10 7 7 7 8 7 8 12 17 20 22 25 27 30 32 33 33 33 34 34 35 35 35 35 36 35 35 34 32 31 28 27 27 26 28 32 33 33 33 33 32 32 33 34 33 33 34 33 31 32 35 38 38 37 38 38 39 40 42 43 43 43 41 40 40 38 38 34
1 4 4 6 7 6 4 5 4 1 3 4 3 2 6 8 9 10 8 9 12 9 8 10 10 9 9 9 9 7 6 7 7 6 5 8 12 14 16 21 24 27 29 30 30 31 32 32 33 34 34 34 34 35 35 34 34 33 33 31 30 29 29 30 32 31 31 32 32 31 30 31 34 35 33 32 31 30 33 36 38 38 38 38 38 39 40 42 44 44 44 44 43 40 38 37 36
3 5 4 6 7 6 5 6 3 2 3 5 3 3 3 7 9 9 7 9 10 9 11 12 10 11 10 8 7 7 8 7 6 6 5 7 11 15 18 22 25 27 27 27 28 30 31 32 32 33 33 33 33 33 34 34 34 34 33 32 30 30 30 30 29 27 28 30 31 31 31 31 32 34 34 33 32 32 33 36 38 38 38 38 38 40 41 42 44 45 44 43 42 41 39 38 38
5 5 5 6 7 6 5 6 2 1 2 5 4 1 2 7 8 7 4 5 8 9 12 12 11 11 9 7 8 7 7 6 5 6 6 7 12 17 20 22 25 26 26 27 28 29 30 30 31 31 32 32 32 32 33 33 33 33 33 32 31 30 29 27 26 25 25 27 30 32 32 32 32 33 33 33 33 33 34 35 36 37 37 38 39 40 41 41 43 44 44 41 39 39 39 37 37
4 3 5 5 5 5 5 5 3 3 2 5 5 3 2 6 6 5 2 3 7 9 9 9 9 9 7 6 6 4 3 3 2 3 4 6 12 17 18 20 22 24 25 26 26 27 28 29 30 30 31 31 31 32 32 32 32 32 32 33 32 30 27 25 23 24 24 25 29 31 32 34 33 33 33 32 32 32 33 34 35 37 38 39 40 41 41 42 42 43 45 44 41 39 38 35 35
5 6 7 7 6 5 4 3 4 3 4 7 7 8 5 5 5 5 4 4 7 5 5 7 6 6 3 1 4 5 5 5 3 1 0 2 6 12 15 18 20 21 23 24 24 26 27 28 29 29 30 30 31 31 32 32 32 33 33 33 32 31 28 26 25 24 25 26 28 31 32 33 33 33 33 33 33 33 34 35 36 37 38 39 41 41 41 42 43 43 43 42 41 40 39 37 35
7 5 5 4 4 4 5 5 4 1 6 6 5 5 5 5 6 4 5 7 6 3 4 5 3 3 2 3 5 6 5 5 5 4 3 1 3 7 13 16 17 18 21 22 24 25 26 27 28 28 29 30 30 31 32 32 32 33 33 33 33 32 30 29 28 27 28 28 29 30 31 32 32 33 33 34 35 35 35 36 37 37 37 39 41 41 41 41 41 41 41 40 39 38 38 37 35
6 5 6 4 2 3 3 3 0 3 6 4 3 0 3 6 6 5 8 9 5 2 2 0 2 3 4 5 6 6 4 5 5 5 5 4 4 8 12 14 16 18 21 23 24 25 26 27 28 29 29 29 30 31 31 32 33 33 33 33 33 32 32 30 29 28 29 29 29 30 31 32 33 33 34 35 37 37 37 37 37 37 38 39 40 41 41 40 40 41 41 41 40 39 38 38 37
4 5 6 5 3 1 3 4 1 4 5 4 2 0 3 5 4 7 11 9 7 3 2 4 7 6 7 6 6 6 5 5 5 5 5 5 7 10 12 13 15 18 21 23 24 25 26 26 27 28 29 29 29 30 31 32 32 33 33 33 32 32 32 31 29 28 28 30 30 31 32 33 34 35 35 36 37 37 37 38 38 38 39 39 39 40 40 40 40 41 41 42 42 41 40 39 39
5 5 6 6 5 5 5 4 3 4 4 3 3 1 3 2 3 7 7 6 8 7 6 5 4 4 5 6 7 6 5 5 4 5 6 7 10 12 13 14 17 20 21 23 24 24 25 26 27 28 29 30 30 30 31 32 32 32 32 32 32 32 32 31 30 29 29 31 31 32 32 33 34 34 33 33 34 35 36 38 38 39 39 39 40 41 40 39 39 39 40 40 41 41 40 40 40
3 3 5 4 6 5 3 3 6 4 1 3 2 4 5 4 6 9 7 9 9 9 9 9 9 8 6 6 7 6 4 5 5 6 7 9 11 12 13 16 19 21 22 23 24 24 25 26 27 29 30 30 31 31 32 32 32 32 32 33 33 33 32 31 31 31 31 31 32 33 33 32 32 32 31 31 32 32 33 36 38 39 39 39 39 39 40 39 38 38 38 39 40 41 40 40 40
2 3 4 5 5 7 3 3 0 3 2 4 2 5 6 3 7 9 8 9 7 7 9 7 9 11 9 8 7 5 3 4 6 7 7 9 10 12 16 18 21 22 23 24 25 25 26 27 28 29 30 30 31 32 32 32 32 32 32 33 33 34 33 33 32 32 32 32 32 32 32 32 32 33 32 31 31 31 32 35 39 40 40 38 38 38 38 38 38 38 39 39 40 41 41 40 40
5 3 6 3 2 3 3 1 2 2 4 4 2 7 6 3 6 4 3 2 3 6 7 6 8 9 8 8 8 7 5 3 5 6 7 8 9 12 16 18 20 22 22 23 24 25 26 27 28 29 30 30 31 32 32 32 32 32 33 33 34 34 34 33 32 32 32 33 33 32 32 32 33 34 33 32 32 33 34 36 39 40 40 39 38 37 37 37 38 39 39 39 40 41 41 40 39
5 4 4 4 2 1 2 2 2 1 3 5 3 5 5 6 7 1 3 6 7 8 7 5 7 8 7 8 7 8 8 6 4 5 6 6 8 12 14 16 18 19 19 20 21 24 26 27 28 28 29 30 30 31 31 32 32 32 32 32 33 34 33 33 33 32 32 33 34 33 32 32 32 33 33 33 33 34 35 36 38 40 40 40 39 39 38 38 39 39 38 38 38 39 40 40 38
2 1 1 2 3 4 3 3 4 4 3 4 4 3 5 8 6 6 5 7 6 9 8 6 8 8 7 6 6 7 7 6 5 5 6 5 8 12 13 15 15 12 14 17 19 22 25 26 27 28 29 28 29 30 31 32 33 32 32 32 32 32 32 33 33 33 33 34 34 34 33 33 32 32 32 32 32 33 34 35 37 38 39 39 39 39 38 38 38 38 38 38 38 38 39 40 39
2 3 3 2 1 2 1 2 2 5 4 3 3 6 8 6 5 7 9 8 8 8 5 3 5 5 5 5 5 5 5 5 5 5 5 6 7 9 10 13 11 6 10 15 17 21 24 25 27 28 28 29 30 31 32 33 33 32 32 32 32 32 32 32 33 33 35 35 35 35 35 34 33 32 32 31 32 33 33 34 36 37 38 38 39 38 37 37 37 37 37 38 38 39 40 40 40
7 6 7 7 5 4 2 3 2 2 4 4 3 7 12 5 6 7 8 7 7 7 5 3 1 3 3 4 5 5 5 5 5 6 6 6 7 7 8 12 8 4 9 14 17 21 23 24 26 27 29 30 31 31 32 33 32 33 33 33 32 32 32 32 34 35 36 37 37 37 36 34 34 34 34 33 32 31 31 32 33 35 36 37 37 37 37 37 38 37 37 38 39 40 41 41 40
Wind_Direction
319 317 314 21 18 356 346 87 61 318 83 84 235 104 206 182 125 112 106 87 64 354 102 96 73 69 89 113 127 115 72 104 174 144 188 168 142 154 174 175 166 155 151 148 147 145 147 146 146 149 145 136 130 129 127 124 117 112 108 104 100 97 91 87 84 81 75 69 70 71 73 81 87 86 83 84 86 88 91 92 95 98 100 97 93 90 85 80 79 81 84 92 97 96 94 91 87
324 321 346 16 7 6 294 109 82 327 62 56 304 124 172 40 63 117 139 121 132 179 118 101 88 77 99 125 129 91 32 350 92 125 111 133 136 145 156 159 157 156 153 150 149 147 149 149 147 148 146 140 133 133 129 125 120 115 112 106 102 99 95 91 87 84 78 72 73 73 75 82 89 89 85 85 89 91 91 93 94 92 92 91 86 84 81 79 80 82 86 94 98 97 94 91 88
328 326 15 7 322 62 17 42 93 92 72 97 282 278 97 77 102 144 142 132 148 143 102 86 67 66 80 88 80 78 124 308 94 94 112 136 137 143 149 150 151 154 153 151 151 149 150 149 149 150 148 143 138 139 134 130 124 119 116 110 107 104 99 96 92 89 82 78 77 75 77 83 90 91 87 87 91 92 93 95 93 88 87 86 85 84 82 82 84 86 89 94 96 97 94 92 90
339 336 348 20 27 21 50 47 137 113 95 156 241 287 92 118 144 133 136 143 152 128 108 88 54 352 76 89 94 87 133 178 118 118 134 150 144 144 151 152 152 153 154 154 153 150 150 150 151 152 149 146 144 141 137 134 127 124 122 117 114 109 105 101 97 94 87 83 82 80 80 86 93 93 91 90 91 93 98 102 102 101 97 91 89 87 86 87 87 88 91 94 95 95 94 91 90
338 310 297 25 75 4 88 63 91 93 132 181 164 216 136 140 143 130 140 132 130 115 114 111 88 298 65 94 123 111 135 117 125 129 137 153 146 144 150 153 153 154 158 156 155 154 152 152 153 153 149 148 148 143 140 134 130 129 126 122 119 114 110 107 103 98 92 88 86 85 83 88 94 97 97 94 94 93 93 93 94 100 100 95 91 90 92 91 90 90 92 93 93 95 95 90 90
336 346 293 271 167 183 94 54 60 75 197 171 131 168 156 144 141 134 115 63 28 58 84 103 131 120 66 22 62 96 154 133 138 138 146 153 149 146 146 149 151 153 160 159 158 160 156 155 155 156 153 151 150 146 142 136 134 134 131 128 123 118 115 111 107 102 96 93 89 88 86 88 94 99 101 98 96 95 93 88 85 89 92 91 90 92 92 91 91 91 94 94 95 98 96 90 92
347 350 327 42 325 51 90 99 135 110 2 123 129 156 155 144 141 128 119 85 17 12 45 90 133 107 91 94 74 24 67 147 146 143 151 154 155 151 145 149 152 155 164 165 162 165 162 159 158 161 159 155 154 150 146 141 140 140 139 136 129 124 120 116 111 108 103 98 93 90 89 89 93 98 102 101 98 97 98 95 90 90 91 90 89 92 90 90 90 92 97 97 98 100 98 92 93
326 309 130 78 359 21 90 112 161 168 32 51 121 148 148 146 142 130 150 144 110 239 48 339 104 94 90 81 100 18 80 135 143 142 148 152 158 155 149 152 155 160 169 169 166 166 164 162 162 164 163 159 157 153 151 147 145 146 147 144 137 130 125 121 117 114 110 105 98 93 92 92 95 99 103 104 102 100 99 99 96 93 94 93 92 93 92 91 92 94 97 99 101 101 98 95 94
272 214 15 74 35 9 72 93 93 146 112 68 106 140 147 149 144 134 153 148 150 155 173 201 104 110 138 60 100 101 93 129 140 142 147 151 156 154 153 154 158 167 170 170 169 169 167 165 166 166 167 163 159 157 154 151 148 150 152 152 146 137 132 128 125 122 117 112 104 99 96 95 96 100 105 105 105 104 102 101 99 98 98 97 97 97 97 95 95 97 98 103 104 102 100 97 95
320 175 31 80 34 9 54 98 76 118 147 133 125 148 155 154 145 141 140 144 146 124 199 195 95 120 132 88 117 161 133 140 143 146 151 152 152 155 158 158 168 173 169 168 168 172 171 169 171 169 170 166 162 161 159 156 151 152 157 160 154 146 140 136 133 129 124 119 112 105 101 100 100 102 106 109 109 109 109 108 108 109 105 102 102 100 99 98 97 99 103 107 107 104 101 99 98
11 309 80 78 37 351 186 151 142 132 146 125 108 160 161 152 136 136 131 133 132 127 195 127 95 140 105 103 248 153 147 148 151 154 157 155 153 158 160 160 176 181 173 170 169 174 175 173 174 172 172 172 169 165 163 161 156 154 160 167 162 155 149 145 142 137 133 128 121 113 109 107 106 105 108 113 115 116 118 118 118 119 113 107 105 103 103 102 101 103 108 111 109 106 103 101 102
40 302 71 83 147 247 191 144 158 142 122 115 138 233 147 123 114 131 136 138 137 138 200 170 151 145 96 89 238 145 147 152 156 155 160 161 157 158 155 152 170 182 177 174 172 174 176 176 176 174 175 177 175 171 169 165 163 156 157 167 166 161 159 154 149 145 142 137 132 123 119 115 113 111 111 114 116 118 121 119 119 121 117 113 110 109 107 106 104 106 112 114 110 109 107 106 106
125 238 84 128 206 166 140 136 161 125 110 178 184 214 121 100 144 167 150 142 147 142 212 215 168 94 100 49 128 151 157 158 153 147 153 158 161 162 162 154 158 174 176 175 173 172 179 179 177 177 176 178 178 177 175 170 168 161 156 163 166 167 166 161 156 152 150 145 143 135 129 125 121 118 115 115 115 115 116 115 116 118 117 116 115 114 112 111 108 108 114 116 113 112 111 109 109
194 205 107 192 282 127 145 119 135 118 223 236 188 179 127 115 184 164 135 125 163 165 213 234 133 93 110 97 129 189 171 162 157 151 150 155 165 166 169 159 150 163 173 176 173 173 180 180 179 179 179 179 181 181 179 176 171 167 162 161 165 169 170 168 163 159 160 157 151 146 141 136 130 126 122 118 115 115 115 116 115 115 115 117 118 119 119 115 112 114 119 118 116 114 111 110 111
187 225 97 113 336 346 190 133 139 127 192 217 178 162 117 124 123 79 118 134 231 228 226 299 101 100 160 160 205 204 163 161 160 158 157 160 165 162 167 163 152 156 167 175 174 176 179 182 183 182 183 183 184 185 183 181 176 174 170 166 166 168 171 173 171 169 170 166 159 155 150 145 139 133 128 123 120 119 119 120 119 117 116 117 119 121 121 116 116 122 124 122 118 116 113 112 113
143 96 72 45 328 318 266 155 118 111 207 201 179 133 101 310 72 76 181 140 152 286 19 18 27 108 159 182 195 161 153 158 160 162 163 163 163 159 163 163 159 159 166 176 177 178 179 184 187 185 188 188 189 189 187 186 182 180 176 175 172 169 173 176 176 176 176 171 166 164 159 152 146 141 137 131 128 126 126 125 124 122 122 122 122 124 123 119 123 127 128 127 122 119 118 116 115
63 73 68 7 267 218 246 209 144 147 203 195 184 134 122 268 15 84 301 83 117 334 46 42 9 63 131 162 151 148 151 155 158 163 164 165 165 162 164 165 165 164 170 180 181 181 182 186 189 190 192 193 194 193 192 191 187 185 182 181 180 177 177 179 180 181 181 176 172 170 165 160 154 150 145 139 136 134 133 132 131 130 129 129 128 128 126 123 127 131 132 130 125 123 123 122 119
63 82 106 217 224 214 267 225 191 150 155 183 194 159 134 166 203 119 37 46 72 83 70 63 32 39 83 118 137 145 152 155 159 163 163 167 169 167 171 173 172 171 174 183 187 188 188 188 190 193 196 197 197 197 196 195 194 192 188 188 187 185 183 183 183 184 185 181 177 174 171 170 163 158 153 148 146 143 142 140 137 136 136 135 133 131 129 128 130 134 135 131 128 129 129 127 123
103 126 129 218 206 132 322 273 178 127 151 174 192 170 145 177 174 129 167 235 147 117 108 75 59 50 86 118 136 146 154 159 163 165 166 171 175 176 178 180 182 181 181 186 190 193 195 192 192 195 197 198 198 199 200 199 199 198 195 195 194 191 189 188 187 188 190 185 182 179 176 178 172 166 162 158 154 151 150 147 144 142 140 139 137 135 132 132 134 137 138 135 132 132 132 130 128
159 118 125 241 206 161 342 11 358 284 152 154 187 170 146 186 154 133 181 188 185 180 187 123 125 175 152 144 146 151 158 163 169 170 172 177 181 184 183 185 189 191 190 190 192 197 199 195 195 197 197 198 198 199 201 201 200 201 201 200 200 197 194 193 191 192 193 190 186 183 181 182 179 173 169 167 162 158 157 154 151 147 145 144 142 139 137 136 136 138 142 142 139 137 134 131 130
164 116 167 235 183 123 318 352 354 330 133 148 167 123 119 179 147 154 155 141 239 230 209 189 190 183 172 172 163 162 164 168 174 177 180 182 186 191 192 192 193 196 195 194 196 199 202 198 197 197 196 198 198 198 201 202 201 200 202 202 203 201 199 197 195 196 195 193 190 187 185 184 182 179 177 174 170 166 164 162 159 155 152 149 147 143 139 138 138 140 143 146 146 143 139 136 136
109 142 175 224 124 114 290 328 4 356 94 113 112 111 148 154 136 175 150 155 230 234 211 202 196 176 171 174 170 170 171 175 181 184 188 189 192 196 199 199 196 196 198 201 202 202 205 203 200 199 198 200 200 201 203 204 201 200 202 203 203 203 203 201 198 199 198 195 192 188 186 186 186 185 184 180 176 172 169 169 166 162 158 154 152 147 141 141 144 146 149 149 149 149 144 142 142
127 236 89 13 91 123 276 337 359 25 82 88 112 138 151 115 193 211 162 190 221 218 191 182 190 174 168 165 162 170 179 184 189 191 192 193 196 199 200 202 200 197 199 205 208 207 208 208 207 205 204 204 203 205 206 205 205 204 206 206 206 205 205 204 201 202 201 197 193 190 190 191 191 189 189 186 182 178 176 176 173 168 163 158 158 154 150 150 152 154 157 157 154 152 147 145 145
115 178 330 41 85 110 202 190 19 56 93 131 138 102 120 149 206 237 198 227 223 219 188 136 140 150 151 154 165 178 184 188 197 199 197 197 200 202 202 203 204 202 201 206 210 210 210 212 213 211 210 210 208 209 209 209 210 210 210 210 210 209 209 207 204 204 204 200 196 194 194 194 194 193 192 191 188 184 182 181 177 173 168 164 163 162 161 160 161 164 164 163 162 158 151 148 148
108 165 207 100 79 117 162 95 53 61 98 97 85 101 210 192 181 202 233 239 227 213 176 113 117 132 145 160 176 184 188 194 202 204 204 205 205 204 203 204 206 206 205 207 209 211 212 213 212 210 210 211 211 212 213 213 213 212 211 210 210 210 211 212 210 207 205 203 201 199 199 198 196 196 195 195 193 189 186 183 180 176 172 169 166 167 171 170 167 170 170 168 166 163 157 153 152
204 155 151 112 101 177 116 74 55 48 64 63 70 322 277 224 206 264 241 231 217 180 145 131 127 138 160 171 179 185 190 198 203 205 209 210 207 206 205 204 206 208 210 209 208 211 213 211 210 208 207 209 211 211 213 214 212 210 210 209 210 210 211 214 215 212 209 207 204 202 204 202 200 199 198 197 195 193 189 185 183 180 177 174 171 173 178 179 175 175 177 174 169 165 159 158 156
169 122 112 119 146 181 114 127 227 36 38 71 90 300 291 278 320 270 255 240 199 162 160 162 144 158 178 180 187 190 192 200 202 202 205 206 206 208 208 206 208 211 211 210 211 212 211 209 209 208 205 208 210 209 211 212 211 210 210 210 211 212 212 214 216 215 215 213 208 205 206 207 206 202 200 200 197 194 192 189 185 183 183 179 177 181 183 185 183 181 182 175 169 165 159 160 162
126 111 88 104 148 268 55 138 211 70 37 75 105 298 290 30 300 235 244 256 177 169 185 181 167 179 185 187 193 194 201 206 203 197 195 201 205 207 208 208 209 210 210 211 212 211 209 208 209 209 207 208 210 209 210 210 210 210 211 211 212 214 213 212 213 216 218 215 211 209 209 210 208 203 199 201 199 195 195 194 189 187 188 184 182 186 188 188 186 182 182 175 169 166 161 160 163
124 108 90 327 11 337 254 182 182 114 40 260 111 330 296 196 228 242 240 224 157 168 186 187 190 196 192 196 198 200 211 209 201 198 202 206 207 207 208 210 209 208 211 212 211 209 209 209 209 210 209 210 211 212 212 208 207 209 210 213 214 214 214 212 212 214 218 216 214 214 215 213 209 203 199 201 202 199 198 198 194 191 191 189 188 190 191 189 186 181 179 176 171 166 160 157 158
123 98 100 64 18 322 258 209 135 115 42 289 90 307 281 251 246 262 255 189 149 162 192 197 201 207 205 205 206 213 218 208 202 206 210 212 212 210 211 213 211 209 211 209 208 209 210 211 211 211 210 211 212 212 210 206 205 206 208 212 214 215 215 216 214 214 216 216 216 218 219 216 212 208 203 201 201 200 200 200 199 195 192 192 193 195 194 191 187 181 178 176 172 167 160 157 157
107 71 56 76 80 292 288 176 140 138 307 2 85 179 268 279 271 281 274 184 158 180 212 220 222 223 219 215 216 224 222 213 210 211 213 215 215 215 215 215 212 210 210 208 208 209 210 212 212 211 211 211 211 210 209 208 207 207 209 212 214 217 218 219 218 217 217 216 217 220 221 219 216 215 211 205 202 200 200 199 200 199 196 195 195 197 196 192 188 183 181 177 170 167 162 159 159
62 87 330 346 147 265 311 347 159 163 276 35 98 200 272 282 280 298 323 143 152 189 225 245 244 237 233 229 223 225 230 224 220 215 215 217 216 217 217 216 213 211 210 210 210 209 210 213 213 212 211 210 210 210 210 210 209 209 213 217 218 219 221 222 223 221 221 220 219 220 222 222 220 218 214 210 207 204 201 200 201 201 199 197 197 198 197 194 189 183 183 181 172 166 162 159 160
360 107 228 275 170 249 307 317 214 153 138 342 144 223 271 285 290 312 343 105 148 192 231 241 237 236 234 231 228 226 231 233 230 223 218 216 217 218 219 217 215 214 213 211 210 209 209 211 212 212 211 211 210 210 210 210 210 209 211 215 217 219 221 224 226 226 225 223 223 224 225 224 221 217 213 213 212 209 205 201 201 202 201 199 199 198 197 194 190 183 180 180 176 167 162 159 156
315 54 217 247 189 175 233 284 292 108 107 250 248 239 252 272 280 288 299 207 174 212 239 244 237 237 236 227 227 225 222 227 231 223 218 217 217 219 219 219 218 216 214 213 212 211 210 210 211 212 212 212 211 210 210 211 212 211 211 213 217 221 224 226 226 226 226 224 223 225 226 224 221 219 219 218 214 212 209 205 204 205 204 202 200 199 197 194 190 185 179 177 177 171 165 162 158
201 199 202 266 235 176 210 249 263 88 95 251 276 271 256 266 275 274 272 236 209 228 236 242 243 239 242 235 226 224 220 224 230 223 218 218 218 218 218 219 218 216 215 214 213 212 211 210 211 212 212 212 212 211 211 212 213 214 214 216 221 226 229 229 225 222 223 224 222 221 221 222 221 222 222 217 212 211 212 210 209 207 206 204 201 198 195 192 187 183 177 173 173 171 168 164 158
163 176 160 172 208 253 254 254 277 108 112 250 249 256 259 262 271 276 275 253 224 234 239 244 250 244 244 242 235 231 223 228 233 227 221 219 219 218 217 217 217 216 215 214 212 211 211 211 210 211 212 212 210 209 210 211 211 213 214 216 220 224 227 226 223 220 220 222 221 219 218 220 222 223 219 214 210 211 211 211 210 208 208 205 201 198 196 195 191 186 180 173 167 165 165 162 159
128 120 108 148 158 291 281 269 306 5 115 255 242 251 266 264 267 268 272 273 251 238 239 239 242 243 241 240 243 239 232 237 239 231 224 221 220 218 216 214 212 211 213 213 211 210 211 211 210 210 211 211 210 209 209 210 209 209 211 213 216 218 219 219 218 218 218 219 219 217 216 216 219 218 214 210 209 209 208 208 209 209 209 207 205 204 201 199 194 189 183 176 171 166 162 162 162
94 104 74 21 155 217 258 247 300 349 80 270 284 290 274 263 262 264 267 276 263 232 224 232 233 234 238 239 245 246 244 251 247 232 223 219 218 216 212 209 207 206 208 210 210 211 211 211 211 212 211 211 212 212 211 211 212 211 211 212 213 213 214 214 215 216 216 215 215 215 213 212 214 213 208 206 206 206 205 205 208 212 211 208 205 200 198 195 190 187 181 174 173 170 166 166 166
80 95 90 13 279 205 297 324 312 1 119 272 334 334 283 272 259 256 252 250 255 238 222 232 232 232 241 239 243 249 251 255 250 241 226 216 214 210 206 205 206 207 207 207 209 210 210 210 212 213 212 212 213 214 214 214 215 215 214 214 213 211 212 214 216 217 216 215 215 215 213 211 214 215 210 206 206 207 208 208 211 214 212 208 202 195 192 191 188 187 184 178 173 170 169 171 172
82 99 109 250 278 149 273 306 304 278 193 272 337 323 283 284 275 259 252 242 256 260 243 245 235 227 236 237 241 245 247 248 242 245 235 215 207 202 201 204 205 206 205 205 206 208 210 211 213 214 214 214 214 215 216 216 216 214 215 216 215 212 212 213 216 218 219 218 217 218 218 215 214 217 217 216 215 216 216 217 218 216 211 207 203 199 195 193 191 188 185 181 174 169 170 175 178
343 127 136 205 258 131 187 288 320 329 344 347 360 326 284 298 324 286 280 277 273 270 261 262 250 235 241 250 253 246 241 238 229 235 233 203 194 197 201 203 203 203 204 206 207 208 211 212 214 216 217 216 215 216 216 215 214 212 211 212 212 212 212 212 213 217 219 220 221 221 221 218 215 214 216 219 221 221 221 222 220 216 210 205 203 204 202 199 195 191 186 183 180 176 175 177 183
323 245 175 181 160 135 121 14 23 19 340 326 30 353 288 306 314 281 293 316 293 285 277 260 255 249 245 250 253 249 245 234 223 228 221 196 196 199 201 202 202 204 207 210 210 212 213 214 216 218 218 217 217 218 218 215 213 211 209 206 205 205 208 211 213 216 218 219 223 223 221 218 217 215 213 215 218 221 222 220 218 215 210 206 205 206 204 199 195 192 189 188 189 186 180 176 182
313 253 192 156 124 113 94 56 48 52 270 283 67 104 272 301 296 274 276 282 278 286 282 261 256 253 239 240 250 249 248 244 240 240 209 193 199 197 200 204 204 207 211 212 213 214 216 218 218 219 219 218 217 218 218 216 214 213 212 210 209 208 210 215 218 220 221 221 222 222 220 217 216 216 216 216 218 221 221 218 216 214 211 209 208 205 201 198 197 195 195 195 194 192 185 179 182
224 241 161 126 109 115 114 92 94 214 260 315 14 128 241 287 282 274 269 269 278 284 276 266 256 251 244 245 252 239 233 233 235 236 212 198 203 201 204 207 209 213 215 213 214 216 218 219 220 220 220 219 219 219 218 217 215 214 214 214 216 217 218 222 223 223 224 222 221 219 219 219 216 216 218 219 220 221 220 216 214 213 211 210 208 204 201 200 198 196 196 197 195 194 194 189 186
236 220 143 123 119 128 114 97 99 347 1 314 312 112 236 267 272 288 290 278 280 266 259 262 259 259 256 246 243 237 234 225 217 223 214 202 204 207 211 212 215 217 217 217 218 219 219 220 220 219 219 219 219 219 217 218 217 217 217 216 217 220 222 226 226 223 223 222 220 219 218 219 218 217 218 218 218 218 217 215 214 213 212 210 207 205 203 201 199 197 196 196 196 197 198 194 190
220 155 93 66 74 79 77 97 102 32 1 258 232 169 233 266 262 273 283 274 270 261 260 262 264 274 273 249 232 208 180 175 184 225 226 209 208 211 215 216 218 219 220 221 221 221 220 219 218 218 218 218 218 218 217 217 217 218 219 218 218 219 219 222 223 221 220 219 218 218 216 217 217 217 217 217 217 217 217 217 216 215 212 210 208 205 203 201 200 199 199 198 199 200 199 196 195
124 87 62 41 27 35 44 61 78 51 286 256 221 189 198 275 272 241 221 232 237 245 290 292 304 334 341 169 170 162 155 148 136 128 345 222 213 211 210 213 217 219 219 220 220 220 219 218 217 216 218 218 218 218 218 217 217 218 220 220 219 218 217 218 218 217 216 216 216 218 217 216 217 217 217 219 219 218 218 219 218 216 211 209 209 205 202 201 201 201 201 200 201 203 203 201 201
94 81 79 60 349 12 17 360 51 147 255 267 258 204 176 248 262 240 252 257 224 175 355 327 338 17 66 154 181 188 182 174 163 164 178 181 192 199 202 207 213 213 212 215 217 218 218 217 216 215 216 217 217 218 218 218 218 219 221 222 221 220 219 219 219 218 217 217 218 219 219 218 218 219 219 218 218 217 216 216 216 214 210 208 209 206 203 203 203 203 202 201 201 205 206 204 202
77 97 101 98 324 9 356 307 183 226 247 264 289 225 193 244 254 256 273 275 246 160 34 325 180 205 217 209 218 222 206 192 185 186 200 215 216 209 203 202 205 207 209 213 215 216 215 215 214 214 215 216 217 218 218 219 219 220 222 222 222 222 222 222 222 222 222 221 221 220 219 218 217 218 218 217 216 215 213 213 213 212 210 209 208 206 205 206 206 204 203 202 203 206 208 207 205
133 137 132 140 146 139 247 259 264 262 260 275 309 279 248 279 284 248 249 263 274 301 301 206 188 202 228 236 237 234 217 202 199 202 209 220 227 225 214 204 203 208 212 213 214 214 213 213 213 214 217 217 218 219 219 219 220 222 223 223 224 223 223 224 224 224 224 223 222 221 221 220 219 219 219 219 216 215 214 213 214 213 212 211 210 207 206 207 207 205 204 204 205 207 208 209 209
179 155 137 158 162 164 203 208 214 249 275 289 296 245 205 220 276 245 232 260 284 303 303 279 245 224 237 255 254 242 229 222 215 210 220 231 232 230 222 213 212 215 217 216 215 214 213 213 213 215 217 217 218 219 220 220 221 223 224 225 225 225 226 227 226 226 226 223 222 223 225 226 225 224 224 224 221 218 218 217 215 215 213 212 211 209 207 206 207 206 205 206 208 209 209 209 210
229 141 117 182 191 158 159 191 183 179 297 285 252 236 210 202 261 262 253 267 279 293 297 299 296 281 264 257 257 249 226 222 220 211 227 241 240 235 226 220 220 220 221 219 217 215 214 214 215 218 220 219 220 221 221 223 223 224 225 226 227 227 227 227 226 226 226 225 224 225 227 229 230 231 230 231 229 226 225 222 218 216 214 212 212 211 209 207 207 207 207 207 208 208 208 208 209
195 153 181 212 179 132 132 260 246 95 259 266 205 252 280 317 279 265 253 258 277 295 284 268 264 266 263 261 265 266 229 207 213 211 224 238 240 236 229 226 225 223 222 221 220 219 217 218 219 220 222 221 222 224 224 225 225 225 227 227 228 228 227 227 225 224 225 226 227 227 229 232 234 233 232 232 233 232 231 228 222 218 215 213 213 213 212 210 209 210 211 211 210 209 209 209 210
135 182 216 197 88 92 117 231 341 40 257 268 219 246 276 305 271 297 17 352 303 277 267 262 266 269 266 265 273 289 294 271 228 219 233 244 246 242 234 232 232 229 227 225 224 225 224 224 224 223 223 223 224 226 226 227 227 227 228 229 229 229 228 227 225 224 225 225 227 227 228 231 232 230 228 229 232 233 232 229 223 219 216 214 213 214 213 212 211 211 213 214 214 211 210 210 211
139 184 197 126 118 243 120 157 212 202 249 275 267 257 260 231 227 267 343 317 312 292 287 283 267 261 256 261 280 299 303 301 270 241 250 254 251 249 242 238 237 233 233 233 231 230 227 227 228 228 229 229 229 229 228 229 229 230 231 232 232 231 229 227 226 225 225 225 225 226 227 228 229 229 228 228 231 232 230 226 221 218 216 214 213 213 212 211 210 210 211 213 213 211 210 209 208
36 98 145 117 145 177 169 171 173 162 204 258 277 280 254 231 189 147 214 258 275 273 278 267 249 249 252 255 272 285 286 289 282 258 255 255 250 253 253 247 240 234 238 238 236 234 231 230 230 229 232 232 231 230 229 230 231 231 233 233 233 233 231 229 226 224 223 224 225 226 227 227 228 231 231 231 233 232 229 226 221 218 216 213 212 211 210 209 209 209 211 212 211 210 209 207 205
173 164 191 205 112 117 181 197 142 143 168 218 263 274 263 237 159 159 202 230 240 236 239 250 242 242 255 257 252 257 263 266 264 254 256 265 261 262 263 252 242 239 246 241 238 239 236 234 232 231 232 231 231 230 230 232 233 233 234 233 233 234 233 230 227 224 223 223 225 226 228 229 231 233 234 234 233 230 228 226 222 219 217 215 213 210 209 209 209 210 211 212 211 208 207 206 203
177 182 192 190 166 133 170 241 248 132 170 185 186 267 273 245 152 169 186 198 218 198 145 86 119 176 213 245 236 233 244 255 269 277 278 280 274 268 259 249 244 266 257 244 240 241 239 237 236 234 233 233 232 232 232 232 234 234 235 235 234 234 234 232 229 226 224 223 224 225 227 229 231 233 234 232 230 228 227 226 223 220 218 217 216 214 213 212 212 212 212 212 210 206 204 203 200